{"data":{"norad_id":63561,"intl_designator":"2025-075P","name":"STARLINK-32953","alt_names":[],"object_type":"PAYLOAD","status":"ACTIVE","operator":null,"country":"US","launch_date":"2025-04-13","launch_site_code":"AFETR","launch_vehicle":null,"mission":null,"orbit_class":"UNKNOWN","rcs_meters":null,"size_class":null,"mass_kg":null,"dimensions":null,"purposes":["comms"],"wikipedia_slug":null,"has_3d_model":false,"image_url":null,"decayed_at":null,"tle_current":{"epoch":"2026-09-20T15:51:33.200352Z","epoch_age_seconds":142557,"freshness":"FRESH","line1":"1 63561U 25075P   26263.66080093  .00011195  00000+0  41563-3 0  9999","line2":"2 63561  42.9971 249.7135 0000708 276.8286  83.2485 15.27586663 81749","mean_motion":15.27586663,"eccentricity":7.08e-5,"inclination_deg":42.9971,"raan_deg":249.7135,"arg_perigee_deg":276.8286,"mean_anomaly_deg":83.2485,"bstar":0.00041563,"rev_number":8174,"period_min":94.266337542645,"perigee_km":482.54337413013,"apogee_km":483.51491525622,"semimajor_km":6861.1661446932,"source":"CELESTRAK","updated_at":"2026-09-21T09:00:35.021706Z"}}}